[[{"header":{"parameterUnit":"m.s-1","parameterCategory":1,"la1":30.2991,"la2":30.254,"lo1":-89.0895,"lo2":-89.0444,"dy":0.0017,"dx":0.0017,"nx":28,"ny":28,"refTime":"2023-09-11T03:00:00:Z","depth":0,"parameterNumber":2,"parameterNumberName":"U-component_of_WINDS"},"data":[0,0,0,0,0,0,0,0,0,0,0,0,0,0,0,0,0,0,0,0,0,0,0,0,0,0,0,0,0,0,0,0,0,0,0,0,0,0,0,0,0,0,0,0,0,0,0,0,0,0,0,0,0,0,0,0,0,0,1.3478,1.3479,0,1.3501,1.3501,1.3501,1.3515,1.3515,1.3515,1.3515,1.3536,1.3537,1.3537,0,0,0,0,0,0,0,0,0,0,0,0,0,1.3445,1.3446,1.3478,1.3479,1.3479,1.3501,1.3501,1.3501,1.3515,1.3515,1.3515,1.3515,1.3536,1.3537,1.3537,0,0,0,0,0,0,0,0,0,0,0,0,0,1.3463,1.3446,1.3478,1.3488,1.349,1.3501,1.3501,1.3501,1.3515,1.3515,1.3515,1.3515,1.3536,1.3537,1.3538,1.354,0,0,1.354,1.354,0,0,0,0,0,0,0,0,1.3462,1.3464,1.3487,1.3488,1.3489,1.3505,1.3497,1.3514,1.3515,1.3505,1.3515,1.3515,1.3526,1.3527,1.3531,1.3541,1.3542,1.354,1.354,1.3541,1.3541,0,0,0,0,0,0,0,1.3461,1.3463,1.3487,1.3487,1.3488,1.3491,1.3494,1.35,1.3515,1.3506,1.3507,1.351,1.3527,1.3531,1.3532,1.3542,1.354,1.3541,1.3541,1.3541,1.3553,1.3553,0,0,0,0,0,0,1.3458,1.3462,1.3486,1.3488,1.3475,1.3492,1.3495,1.35,1.3515,1.3517,1.351,1.351,1.3529,1.3531,1.3533,1.3536,1.3541,1.3541,1.3542,1.3554,1.3553,1.3553,0,0,0,0,0,0,1.3457,1.346,1.3485,1.3475,1.3479,1.3492,1.3498,1.35,1.3504,1.3517,1.352,1.3511,1.3529,1.3532,1.3538,1.3537,1.3542,1.3542,1.3554,1.3554,1.3553,1.3542,0,0,0,0,0,0,1.3456,1.346,1.3461,1.3475,1.3479,1.3491,1.3498,1.3501,1.3506,1.3507,1.3519,1.3522,1.353,1.3537,1.3539,1.3538,1.3543,1.3554,1.3554,1.3553,1.3543,1.3542,1.3541,0,0,0,0,0,1.3455,1.3457,1.3461,1.3464,1.3482,1.3491,1.3493,1.3503,1.3506,1.3507,1.3515,1.3521,1.3537,1.3537,1.3539,1.3539,1.3554,1.3554,1.3553,1.3543,1.3542,1.3541,0,0,0,0,0,0,1.3442,1.3459,1.3464,1.3471,1.3479,1.3493,1.3495,1.3501,1.3509,1.3509,1.3521,1.3523,1.3528,1.3534,1.3535,1.3541,1.3546,1.3546,1.3537,1.3536,1.3535,1.3534,1.3544,0,0,0,0,0,1.3441,1.3447,1.3461,1.3466,1.347,1.3482,1.3486,1.3493,1.3502,1.3505,1.3514,1.3522,1.3529,1.3533,1.354,1.3544,1.3546,1.3544,1.3543,1.3543,1.3542,1.3544,1.3543,1.3552,1.3552,1.3552,0,0,1.3437,1.3446,1.345,1.3464,1.3471,1.3477,1.3485,1.3491,1.3495,1.3506,1.3513,1.3519,1.3529,1.3534,1.3536,1.3539,1.354,1.3542,1.3541,1.3542,1.3544,1.3543,1.3542,1.3552,1.3552,1.3552,0,0,1.3432,1.3441,1.3445,1.3452,1.3464,1.3471,1.3472,1.3485,1.349,1.3497,1.3505,1.351,1.3521,1.3527,1.3532,1.3529,1.3535,1.3531,1.3526,1.3528,1.3527,1.3526,1.3525,1.3524,1.3531,1.3531,1.3531,0,1.3426,1.3436,1.3447,1.3452,1.3458,1.3468,1.3472,1.3478,1.3491,1.3494,1.3497,1.3511,1.3518,1.3524,1.3524,1.3527,1.3528,1.353,1.3526,1.3526,1.3525,1.3524,1.3523,1.353,1.353,1.3531,1.3531,0,1.3427,1.3434,1.3436,1.3448,1.3454,1.3458,1.3469,1.3473,1.3479,1.3486,1.3492,1.3501,1.351,1.3512,1.3518,1.3519,1.352,1.3524,1.3529,1.3524,1.3522,1.3522,1.353,1.353,1.353,1.353,0,0,1.3416,1.3434,1.3434,1.344,1.3452,1.3457,1.3462,1.3471,1.3474,1.3482,1.3486,1.3495,1.3499,1.3504,1.351,1.3512,1.3508,1.3516,1.3516,1.3514,1.3509,1.3505,1.3504,1.3512,1.3512,1.3512,1.3508,0,1.3414,1.3424,1.3433,1.3439,1.3445,1.3454,1.3458,1.3466,1.3472,1.3478,1.3485,1.3491,1.3496,1.3499,1.3501,1.3508,1.3507,1.3509,1.3515,1.3515,1.3512,1.3504,1.35,1.3496,1.3508,1.3507,1.3507,0,1.3413,1.342,1.3427,1.3438,1.3441,1.3445,1.3453,1.3458,1.3466,1.3471,1.3476,1.3483,1.3488,1.3492,1.3498,1.3499,1.3502,1.3506,1.3506,1.3506,1.3511,1.3504,1.3495,1.3494,1.3507,1.3507,1.3507,0,1.3403,1.3415,1.3421,1.3425,1.3438,1.344,1.3446,1.3455,1.3459,1.3466,1.3469,1.3476,1.348,1.3485,1.3493,1.3495,1.3498,1.3503,1.3501,1.3501,1.3501,1.3501,1.3492,1.3504,1.3504,1.3504,1.3504,0,1.34,1.3403,1.3417,1.342,1.3424,1.3434,1.3437,1.3444,1.3451,1.3455,1.3464,1.3467,1.3478,1.3483,1.3489,1.3492,1.3494,1.3498,1.3499,1.3497,1.3496,1.3499,1.3499,1.3503,1.3503,1.3503,1.3503,0,1.339,1.34,1.3406,1.3418,1.3421,1.3423,1.3433,1.3436,1.3443,1.3448,1.3449,1.346,1.3466,1.3474,1.3482,1.3487,1.3489,1.3492,1.3486,1.3487,1.3485,1.3485,1.3477,1.3476,1.3488,1.3488,1.3488,0,1.3387,1.339,1.3402,1.3406,1.3411,1.3416,1.3421,1.343,1.3434,1.3444,1.3445,1.3452,1.3457,1.3466,1.3474,1.348,1.3483,1.348,1.3484,1.3481,1.3482,1.3482,1.3482,1.3478,1.3478,1.3478,1.3478,0,1.338,1.3385,1.3391,1.3398,1.3403,1.341,1.3416,1.3418,1.3429,1.3433,1.3439,1.3443,1.3452,1.3458,1.3465,1.347,1.3475,1.3477,1.3477,1.3474,1.347,1.3472,1.3483,1.3477,1.3477,1.3477,1.3477,1.3477,1.3374,1.3377,1.3385,1.3392,1.3398,1.3403,1.3407,1.3413,1.3419,1.3426,1.3431,1.3437,1.3444,1.3454,1.3459,1.3463,1.3465,1.3465,1.3465,1.3465,1.3464,1.347,1.3464,1.3464,1.3464,1.3464,1.3464,0,1.3367,1.3373,1.3379,1.3388,1.3392,1.3398,1.3405,1.3408,1.3413,1.342,1.3425,1.3431,1.3437,1.3445,1.3451,1.3452,1.3455,1.3453,1.3453,1.3454,1.3462,1.3461,1.3451,1.3451,1.3451,1.3451,1.3451,1.3451,1.3365,1.3369,1.3374,1.3381,1.3387,1.3393,1.3396,1.3401,1.3406,1.3413,1.3418,1.3423,1.343,1.3436,1.3441,1.3443,1.3445,1.3443,1.3445,1.3452,1.3454,1.3455,1.3454,1.3443,1.3443,1.3437,1.3437,1.3437]},{"header":{"parameterUnit":"m.s-1","parameterCategory":1,"la1":30.2991,"la2":30.254,"lo1":-89.0895,"lo2":-89.0444,"dy":0.0017,"dx":0.0017,"nx":28,"ny":28,"refTime":"2023-09-11T03:00:00:Z","depth":0,"parameterNumber":3,"parameterNumberName":"V-component_of_WINDS"},"data":[0,0,0,0,0,0,0,0,0,0,0,0,0,0,0,0,0,0,0,0,0,0,0,0,0,0,0,0,0,0,0,0,0,0,0,0,0,0,0,0,0,0,0,0,0,0,0,0,0,0,0,0,0,0,0,0,0,0,0.2353,0.2353,0,0.2392,0.2392,0.2392,0.24,0.24,0.24,0.24,0.2437,0.2438,0.2439,0,0,0,0,0,0,0,0,0,0,0,0,0,0.2284,0.2285,0.2353,0.2353,0.2354,0.2391,0.2392,0.2393,0.24,0.24,0.24,0.2399,0.2436,0.2438,0.2439,0,0,0,0,0,0,0,0,0,0,0,0,0,0.2317,0.2285,0.2353,0.2362,0.2364,0.2391,0.2392,0.2393,0.2401,0.24,0.24,0.2399,0.2436,0.2438,0.244,0.246,0,0,0.2445,0.2446,0,0,0,0,0,0,0,0,0.2315,0.232,0.2361,0.2362,0.2363,0.2391,0.2381,0.2415,0.2401,0.2386,0.24,0.2399,0.2422,0.2425,0.2433,0.2462,0.2463,0.2446,0.2447,0.2448,0.2448,0,0,0,0,0,0,0,0.2313,0.2318,0.2368,0.2361,0.2363,0.2364,0.2368,0.2388,0.2406,0.2388,0.2388,0.2393,0.2422,0.2431,0.2434,0.2464,0.2446,0.2447,0.2448,0.2449,0.2511,0.2511,0,0,0,0,0,0,0.2309,0.2316,0.2367,0.2369,0.2338,0.2366,0.237,0.2382,0.2406,0.2409,0.2393,0.2393,0.2428,0.2432,0.2435,0.246,0.2448,0.2449,0.245,0.251,0.2511,0.2511,0,0,0,0,0,0,0.2308,0.2314,0.2365,0.2343,0.235,0.2367,0.2381,0.2383,0.2392,0.241,0.2413,0.2399,0.2428,0.2433,0.2454,0.2462,0.245,0.2452,0.251,0.251,0.2511,0.2511,0,0,0,0,0,0,0.2306,0.2313,0.2322,0.2343,0.2351,0.2384,0.2381,0.2384,0.2396,0.2396,0.2416,0.2419,0.2428,0.2451,0.2456,0.2464,0.2453,0.2509,0.251,0.2511,0.251,0.2512,0.2513,0,0,0,0,0,0.2303,0.2319,0.2322,0.2328,0.2362,0.2385,0.2389,0.2399,0.2396,0.2404,0.2416,0.2418,0.246,0.2453,0.2458,0.2468,0.2509,0.251,0.2511,0.251,0.2511,0.2513,0,0,0,0,0,0,0.2298,0.2323,0.2325,0.2349,0.2365,0.2386,0.2397,0.2401,0.2417,0.2416,0.2428,0.2432,0.2453,0.2462,0.2454,0.2488,0.2484,0.2486,0.2481,0.2483,0.2484,0.2482,0.2455,0,0,0,0,0,0.2299,0.2317,0.2337,0.2356,0.2364,0.2379,0.2389,0.2396,0.2412,0.2418,0.2431,0.2446,0.2463,0.2473,0.249,0.2512,0.2516,0.2521,0.2522,0.2523,0.2525,0.2537,0.2539,0.2515,0.2515,0.2515,0,0,0.2303,0.2319,0.2329,0.2355,0.2368,0.2385,0.2384,0.2402,0.2415,0.2421,0.2442,0.2452,0.2469,0.2491,0.2501,0.25,0.2532,0.2524,0.2525,0.2526,0.2538,0.254,0.2542,0.2516,0.2516,0.2516,0,0,0.2318,0.2332,0.2349,0.2362,0.2382,0.2392,0.2396,0.2416,0.2423,0.2445,0.245,0.2464,0.2492,0.2505,0.2515,0.2534,0.2537,0.2539,0.2545,0.2557,0.2559,0.2561,0.2568,0.257,0.254,0.254,0.254,0,0.232,0.2347,0.2358,0.2376,0.2387,0.2394,0.2411,0.2423,0.2446,0.2454,0.2452,0.2487,0.2499,0.2524,0.2529,0.2537,0.2541,0.2537,0.2558,0.256,0.2561,0.2568,0.2571,0.2541,0.2541,0.2541,0.2541,0,0.2348,0.2366,0.2377,0.2401,0.2413,0.2431,0.2444,0.2455,0.246,0.247,0.2492,0.2507,0.2526,0.2532,0.2537,0.2558,0.2556,0.2556,0.2552,0.2564,0.257,0.2573,0.2541,0.2541,0.2541,0.2541,0,0,0.2361,0.239,0.2394,0.2405,0.2427,0.2441,0.2458,0.2478,0.2487,0.2503,0.2517,0.2541,0.2541,0.2552,0.2558,0.2569,0.2583,0.2567,0.2568,0.257,0.2606,0.2607,0.2609,0.2585,0.2585,0.2586,0.2605,0,0.2379,0.2412,0.2422,0.2448,0.2465,0.2472,0.2487,0.2501,0.2511,0.2526,0.2536,0.2552,0.2551,0.2558,0.2568,0.2579,0.2591,0.2578,0.2598,0.2599,0.2594,0.2613,0.2613,0.263,0.2607,0.2608,0.2608,0,0.2405,0.2422,0.245,0.247,0.2477,0.2491,0.2509,0.2523,0.254,0.2546,0.2558,0.2564,0.2582,0.2576,0.2601,0.2592,0.2601,0.2607,0.2608,0.2611,0.2605,0.2616,0.2636,0.2639,0.2612,0.2612,0.2612,0,0.2412,0.2442,0.2462,0.2471,0.2495,0.2504,0.2514,0.253,0.2541,0.2557,0.2564,0.2581,0.2591,0.2604,0.2614,0.2609,0.2637,0.2633,0.2643,0.2642,0.2649,0.2648,0.2671,0.2654,0.2654,0.2654,0.2654,0,0.2431,0.2448,0.2466,0.2479,0.2498,0.2509,0.2528,0.2538,0.2552,0.2567,0.2573,0.2586,0.2598,0.2613,0.2621,0.264,0.2644,0.2649,0.2651,0.2649,0.2648,0.2655,0.2654,0.2654,0.2654,0.2654,0.2654,0,0.2443,0.2455,0.2478,0.2499,0.2504,0.2517,0.2534,0.2547,0.2556,0.2575,0.2579,0.2594,0.2612,0.2623,0.2645,0.265,0.2671,0.2672,0.2666,0.2667,0.2676,0.2675,0.2704,0.2708,0.2688,0.2688,0.2688,0,0.2454,0.2468,0.249,0.25,0.251,0.2527,0.2538,0.255,0.2561,0.2581,0.2591,0.2609,0.2624,0.2651,0.2664,0.2681,0.2683,0.2691,0.2685,0.2682,0.2683,0.2682,0.2683,0.2693,0.2693,0.2693,0.2693,0,0.2474,0.2479,0.2496,0.2514,0.2528,0.2543,0.2558,0.2566,0.258,0.2592,0.261,0.2622,0.2645,0.2663,0.2681,0.269,0.2694,0.2695,0.2698,0.2696,0.2692,0.2694,0.2669,0.2694,0.2694,0.2694,0.2694,0.2694,0.2486,0.2498,0.2515,0.2533,0.2546,0.256,0.2572,0.2584,0.2599,0.2619,0.2625,0.2644,0.2659,0.2684,0.2694,0.2709,0.2708,0.2712,0.2713,0.2714,0.2715,0.2689,0.2712,0.2712,0.2712,0.2712,0.2712,0,0.2505,0.2517,0.2533,0.2555,0.2569,0.2571,0.2588,0.2599,0.2616,0.2631,0.2646,0.2667,0.2684,0.2697,0.2715,0.2724,0.2726,0.2728,0.2728,0.273,0.2715,0.271,0.2726,0.2726,0.2726,0.2726,0.2726,0.2726,0.2517,0.2538,0.2546,0.2573,0.2584,0.2603,0.2613,0.2625,0.2637,0.266,0.2675,0.2684,0.2698,0.2716,0.2732,0.2736,0.2742,0.2744,0.2747,0.2733,0.2731,0.273,0.2726,0.2745,0.2745,0.2762,0.2762,0.2762]}]]